Curtin, Australia

2:30 PM AWST on April 23, 2017 (GMT +0800)
Curtin

Weather History for YCIN - June, 2013

Change the Weather History Date:

Wednesday, June 26, 2013

  Actual Average Record
Temperature  
Mean Temperature 79 °F -  
Max Temperature 88 °F - - ()
Min Temperature 70 °F - - ()
Cooling Degree Days 14    
Growing Degree Days 29 (Base 50)    
Moisture  
Dew Point 69 °F    
Average Humidity 71    
Maximum Humidity 94    
Minimum Humidity 54    
Precipitation  
Precipitation 0.00 in - - ()
Sea Level Pressure  
Sea Level Pressure 29.87 in    
Wind  
Wind Speed 5 mph ()    
Max Wind Speed 13 mph    
Max Gust Speed -    
T = Trace of Precipitation, MM = Missing Value Source: Averaged Metar Reports

Daily Weather History Graph

Daily Weather History Graph

Search for Another Location

Airport or City:

Trip Planner

Search our weather history database for the weather conditions in past years. The results will help you decide how hot, cold, wet, or windy it might be!

Date:

Astronomy

Jun. 26, 2013 Rise Set
Actual Time 6:15 AM AWST 5:19 PM AWST
Civil Twilight 5:51 AM AWST 5:43 PM AWST
Nautical Twilight 5:24 AM AWST 6:10 PM AWST
Astronomical Twilight 4:57 AM AWST 6:37 PM AWST
Moon 8:27 PM AWST (6/26) 8:29 AM AWST (6/26)
Length of Visible Light 11h 52m
Length of Day
11h 04m
Waning Gibbous, 89% of the Moon is Illuminated
Jun 26
Waning Gibbous
Jun 30
Last Quarter
Jul 8
New
Jul 16
First Quarter
Jul 23
Full

Hourly Weather History & Observations

Time (AWST) Temp. Heat Index Dew Point Humidity Pressure Visibility Wind Dir Wind Speed Gust Speed Precip Events Conditions
12:00 AM 75 °F - 63 °F 58% 29.92 in - NNE 4.6 mph - -  
12:00 AM 75.2 °F - 62.6 °F 65% 29.92 in - NNE 4.6 mph - N/A   Unknown
1:00 AM 75.2 °F - 64.4 °F 69% 29.92 in - North 2.3 mph - N/A   Unknown
2:00 AM 75.2 °F - 64.4 °F 69% 29.89 in - Calm Calm - N/A   Unknown
3:00 AM 74 °F - 64 °F 63% 29.89 in - Calm Calm - -  
3:00 AM 75.2 °F - 64.4 °F 69% 29.89 in - Calm Calm - N/A   Unknown
4:00 AM 75.2 °F - 64.4 °F 69% 29.89 in - ENE 4.6 mph - N/A   Unknown
5:00 AM 73.4 °F - 64.4 °F 73% 29.86 in - NE 4.6 mph - N/A   Unknown
6:00 AM 73 °F - 65 °F 68% 29.88 in - NE 4.6 mph - -  
6:00 AM 73.4 °F - 64.4 °F 73% 29.89 in - NE 4.6 mph - N/A   Unknown
7:00 AM 73.4 °F - 64.4 °F 73% 29.89 in - NE 4.6 mph - N/A   Unknown
8:00 AM 80.6 °F 83.9 °F 69.8 °F 70% 29.89 in - NNE 6.9 mph - N/A   Unknown
9:00 AM 82 °F - 70 °F 60% 29.91 in - North 8.1 mph - -  
9:00 AM 82.4 °F 86.3 °F 69.8 °F 66% 29.92 in - North 8.1 mph - N/A   Unknown
10:00 AM 80.6 °F 84.6 °F 71.6 °F 74% 29.89 in - NNW 6.9 mph - N/A   Unknown
11:00 AM 84.2 °F 89.6 °F 71.6 °F 66% 29.89 in - NNW 9.2 mph - N/A   Unknown
12:00 PM 86 °F - 73 °F 58% 29.86 in - NW 8.1 mph - -  
12:00 PM 86.0 °F 93.4 °F 73.4 °F 66% 29.86 in - NW 8.1 mph - N/A   Unknown
1:00 PM 86.0 °F 91.8 °F 71.6 °F 62% 29.83 in - NNW 12.7 mph - N/A   Unknown
2:00 PM 86.0 °F 91.8 °F 71.6 °F 62% 29.83 in - NNW 12.7 mph - N/A   Unknown
3:00 PM 87 °F - 73 °F 54% 29.81 in - NNW 11.5 mph - -  
3:00 PM 87.8 °F 95.6 °F 73.4 °F 62% 29.80 in - NNW 11.5 mph - N/A   Unknown
4:00 PM 84.2 °F 90.9 °F 73.4 °F 70% 29.80 in - NNW 11.5 mph - N/A   Unknown
5:00 PM 82.4 °F 88.2 °F 73.4 °F 74% 29.83 in - NNW 10.4 mph - N/A   Unknown
6:00 PM 80 °F - 72 °F 72% 29.84 in - NNW 9.2 mph - -  
6:00 PM 78.8 °F - 73.4 °F 83% 29.83 in - NNW 9.2 mph - N/A   Unknown
7:00 PM 78.8 °F - 73.4 °F 83% 29.86 in - North 8.1 mph - N/A   Unknown
8:00 PM 77.0 °F - 73.4 °F 89% 29.86 in - North 5.8 mph - N/A   Unknown
9:00 PM 76 °F - 72 °F 86% 29.87 in - North 3.5 mph - -  
9:00 PM 75.2 °F - 73.4 °F 94% 29.86 in - North 3.5 mph - N/A   Unknown
10:00 PM 75.2 °F - 73.4 °F 94% 29.86 in - Calm Calm - N/A   Unknown
11:00 PM 75.2 °F - 71.6 °F 89% 29.86 in - Calm Calm - N/A   Unknown